Date_and_time,latitude,longitude,wind_speed,RelWindDirFrom,WindDirFrom,air_pressure,air_temperature,relative_humidity,Temp,platform_speed_wrt_ground,air_pressure_at_mean_sea_level,platform_orientation
2018-10-10 23:50,52.6761416666667,-98.31648,13.7,19.3,21,996.00,-0.3,66,7.76,0.1,1024.14,189.8
2018-10-11 00:00,52.6760866666667,-98.3162483333333,11.5,17.3,10,996.01,-0.4,65,7.76,0.1,1024.15,191.6
2018-10-11 00:00,52.6760833333333,-98.3162366666667,12.3,12.4,23,995.97,-0.2,66,7.76,0.0,1024.09,191.8
2018-10-11 00:10,52.6760966666667,-98.3164333333333,14.9,19.5,23,995.77,-0.2,66,7.75,0.0,1023.89,191.8
2018-10-11 00:20,52.6761216666667,-98.3164916666667,12.8,18.7,27,995.91,-0.2,64,7.75,0.0,1024.04,191.8
2018-10-11 00:30,52.6761266666667,-98.3163833333333,11.9,15.6,19,995.86,-0.1,65,7.74,0.0,1023.96,191.8
2018-10-11 00:40,52.6761516666667,-98.3165833333333,14.4,20.7,35,995.61,0.1,64,7.73,0.0,1023.69,191.8
2018-10-11 00:50,52.6761516666667,-98.3165183333333,14.0,19.5,30,995.48,0.1,63,7.73,0.0,1023.57,191.8
2018-10-11 01:00,52.6760666666667,-98.3161966666667,14.6,20.3,20,995.33,0.1,63,7.73,0.1,1023.40,194.6
2018-10-11 01:10,52.6760916666667,-98.3162983333333,13.5,19.2,15,995.31,0.2,64,7.73,0.0,1023.39,194.6
2018-10-11 01:20,52.6760966666667,-98.3162483333333,13.7,20.6,15,995.14,0.3,66,7.73,0.0,1023.21,194.6
2018-10-11 01:30,52.6761333333333,-98.3164233333333,15.1,20.5,22,995.07,0.3,63,7.73,0.0,1023.14,194.6
2018-10-11 01:40,52.6760816666667,-98.3162816666667,12.6,19.0,17,995.26,0.3,64,7.73,0.0,1023.34,194.6
2018-10-11 01:50,52.6761133333333,-98.316355,14.5,19.5,23,995.09,0.3,62,7.72,0.0,1023.16,194.6
2018-10-11 02:00,52.6761016666667,-98.3163716666667,13.5,18.5,15,995.04,0.3,62,7.72,0.0,1023.10,282.8
2018-10-11 02:10,52.6760933333333,-98.3163716666667,12.3,17.3,22,995.07,0.3,62,7.72,0.0,1023.14,282.8
2018-10-11 02:20,52.6761666666667,-98.3165833333333,14.9,21.3,22,994.78,0.3,63,7.72,0.1,1022.82,282.8
2018-10-11 02:30,52.6761383333333,-98.3165033333333,13.2,18.6,22,994.77,0.3,63,7.72,0.0,1022.81,282.8
2018-10-11 02:40,52.67614,-98.3166266666667,13.3,19.6,34,994.72,0.3,62,7.72,0.0,1022.76,282.8
2018-10-11 02:50,52.6761616666667,-98.3165983333333,13.4,19.8,32,994.62,0.1,62,7.72,0.0,1022.66,282.8
2018-10-11 03:00,52.6761266666667,-98.3164983333333,14.4,19.8,18,994.46,0.1,63,7.72,0.0,1022.50,286.0
2018-10-11 03:10,52.67612,-98.3165716666667,13.9,17.8,27,994.41,0.1,64,7.72,0.0,1022.44,286.0
2018-10-11 03:20,52.6760766666667,-98.3163666666667,13.9,21.2,25,994.41,0.1,64,7.72,0.0,1022.44,286.0
2018-10-11 03:30,52.6761116666667,-98.3165283333333,13.8,17.9,28,994.36,0.1,63,7.72,0.0,1022.39,286.0
2018-10-11 03:40,52.67615,-98.3166366666667,13.8,19.7,31,994.36,-0.0,64,7.72,0.0,1022.39,286.0
2018-10-11 03:50,52.6762066666667,-98.3167666666667,13.9,18.9,35,994.27,-0.0,65,7.72,0.0,1022.30,286.0
2018-10-11 04:00,52.676125,-98.31661,13.3,18.5,38,994.26,-0.2,62,7.72,0.0,1022.30,284.1
2018-10-11 04:10,52.676145,-98.3166666666667,12.7,20.4,26,994.16,-0.2,62,7.72,0.0,1022.19,284.1
2018-10-11 04:20,52.6762,-98.316705,12.1,17.5,29,994.08,-0.2,64,7.72,0.0,1022.11,284.1
2018-10-11 04:30,52.6761733333333,-98.316735,13.2,18.1,31,993.91,-0.4,64,7.73,0.0,1021.95,284.1
2018-10-11 04:40,52.67616,-98.3166983333333,14.2,20.0,34,993.72,-0.4,65,7.73,0.0,1021.76,284.1
2018-10-11 04:50,52.676175,-98.3167,14.8,19.3,31,993.57,-0.6,63,7.72,0.0,1021.62,284.1
2018-10-11 05:00,52.67612,-98.3166033333333,13.7,18.7,29,993.48,-0.5,64,7.72,0.0,1021.52,276.6
2018-10-11 05:10,52.6761966666667,-98.3168566666667,14.7,21.2,23,993.31,-0.5,64,7.72,0.1,1021.34,276.6
2018-10-11 05:20,52.6761566666667,-98.316745,12.8,16.9,33,993.39,-0.7,63,7.72,0.0,1021.45,276.6
2018-10-11 05:30,52.67619,-98.3167716666667,14.4,19.3,35,993.22,-0.7,63,7.72,0.0,1021.27,276.6
2018-10-11 05:40,52.6761316666667,-98.3166816666667,12.1,17.9,32,993.24,-0.8,62,7.72,0.0,1021.30,276.6
2018-10-11 05:50,52.6760866666667,-98.316565,13.7,19.1,23,992.98,-0.6,64,7.72,0.0,1021.03,276.6
2018-10-11 06:00,52.6761083333333,-98.31663,13.5,20.4,22,992.88,-0.8,63,7.72,0.0,1020.93,257.9
2018-10-11 06:10,52.676135,-98.316705,14.2,19.6,26,992.67,-0.8,64,7.73,0.0,1020.72,257.9
2018-10-11 06:20,52.6761316666667,-98.3167066666667,14.1,19.3,34,992.64,-0.8,63,7.73,0.0,1020.71,257.9
2018-10-11 06:30,52.6761516666667,-98.3166933333333,13.5,19.4,34,992.62,-0.9,63,7.72,0.0,1020.69,257.9
2018-10-11 06:40,52.6761033333333,-98.3165516666667,13.8,18.7,12,992.47,-0.9,64,7.72,0.0,1020.54,257.9
2018-10-11 06:50,52.6761133333333,-98.3166433333333,12.9,17.4,15,992.43,-0.8,66,7.72,0.0,1020.50,257.9
2018-10-11 07:00,52.6760933333333,-98.3165716666667,13.5,19.2,18,992.31,-0.8,65,7.72,0.0,1020.37,148.8
2018-10-11 07:10,52.676155,-98.3167483333333,13.5,18.5,30,992.37,-0.8,65,7.72,0.0,1020.44,148.8
2018-10-11 07:20,52.6761233333333,-98.3165916666667,13.0,18.6,27,992.30,-0.7,65,7.72,0.0,1020.36,148.8
2018-10-11 07:30,52.676145,-98.3166133333333,13.8,19.0,31,992.15,-0.8,65,7.72,0.0,1020.21,148.8
2018-10-11 07:40,52.6761433333333,-98.3166416666667,12.8,17.9,13,992.12,-0.8,64,7.72,0.0,1020.18,148.8
2018-10-11 07:50,52.6761316666667,-98.3166966666667,13.4,19.6,19,992.00,-0.9,64,7.72,0.0,1020.07,148.8
2018-10-11 08:00,52.676135,-98.3165066666667,12.4,17.7,17,991.98,-0.9,65,7.72,0.0,1020.04,79.9
2018-10-11 08:10,52.676135,-98.3165983333333,12.1,17.6,19,991.94,-1.0,64,7.72,0.0,1020.01,79.9
2018-10-11 08:20,52.6761916666667,-98.3167116666667,11.6,16.3,28,991.92,-1.0,63,7.72,0.0,1020.00,79.9
2018-10-11 08:30,52.6761066666667,-98.3165333333333,11.5,17.3,22,991.81,-1.0,66,7.72,0.0,1019.88,79.9
2018-10-11 08:40,52.67615,-98.3166616666667,12.7,19.2,21,991.63,-0.8,66,7.72,0.0,1019.69,79.9
2018-10-11 08:50,52.6761066666667,-98.3165066666667,12.5,16.8,7,991.56,-0.8,67,7.72,0.0,1019.61,79.9
2018-10-11 09:00,52.6761483333333,-98.3166666666667,11.8,17.2,22,991.49,-0.8,66,7.72,0.0,1019.53,331.1
2018-10-11 09:10,52.6761066666667,-98.3165,11.7,18.7,18,991.38,-0.9,65,7.72,0.0,1019.43,331.1
2018-10-11 09:20,52.67611,-98.3165083333333,12.2,16.1,13,991.37,-0.8,66,7.72,0.0,1019.41,331.1
2018-10-11 09:30,52.676125,-98.3165716666667,12.8,17.9,8,991.34,-0.8,65,7.71,0.0,1019.38,331.1
2018-10-11 09:40,52.67611,-98.3164083333333,11.8,15.8,16,991.36,-0.8,65,7.71,0.0,1019.41,331.1
2018-10-11 09:50,52.676155,-98.31663,11.9,16.7,22,991.33,-0.8,66,7.71,0.1,1019.38,331.1
2018-10-11 10:00,52.6760983333333,-98.31644,11.5,16.5,10,991.27,-0.8,66,7.71,0.0,1019.32,86.1
2018-10-11 10:10,52.6760916666667,-98.316525,13.3,19.3,15,991.17,-0.7,66,7.71,0.0,1019.21,86.1
2018-10-11 10:20,52.6760833333333,-98.316355,13.6,18.4,3,991.09,-0.7,66,7.71,0.0,1019.13,86.1
2018-10-11 10:30,52.676085,-98.3163766666667,13.7,20.5,4,991.04,-0.6,67,7.71,0.0,1019.07,86.1
2018-10-11 10:40,52.6760866666667,-98.316335,12.4,19.2,9,991.16,-0.7,67,7.71,0.0,1019.19,86.1
2018-10-11 10:50,52.67606,-98.3163016666667,11.6,19.4,4,991.17,-0.6,69,7.71,0.0,1019.20,86.1
2018-10-11 11:00,52.6760866666667,-98.3164733333333,13.1,18.4,6,991.10,-0.5,70,7.72,0.0,1019.13,146.8
2018-10-11 11:10,52.67606,-98.31613,15.6,21.9,4,990.92,-0.5,68,7.71,0.1,1018.94,146.8
2018-10-11 11:20,52.6760783333333,-98.3163,14.1,19.5,355,990.99,-0.6,68,7.72,0.0,1019.02,146.8
2018-10-11 11:30,52.6760783333333,-98.3162816666667,13.3,18.1,348,991.00,-0.7,68,7.72,0.0,1019.03,146.8
2018-10-11 11:40,52.6760883333333,-98.3162716666667,14.1,18.8,355,990.87,-0.6,68,7.72,0.0,1018.89,146.8
2018-10-11 11:50,52.67608,-98.316285,13.9,21.2,350,990.80,-0.7,68,7.72,0.0,1018.83,146.8
2018-10-11 12:00,52.6760833333333,-98.3159866666667,13.8,20.9,357,990.81,-0.7,67,7.72,0.1,1018.83,99.3
2018-10-11 12:10,52.6760616666667,-98.3160833333333,13.2,18.0,353,990.90,-0.7,64,7.72,0.0,1018.92,99.3
2018-10-11 12:20,52.6762366666667,-98.3162883333333,13.2,19.2,5,990.93,-0.7,64,7.72,0.1,1018.95,99.3
2018-10-11 12:30,52.6799316666667,-98.315145,14.4,19.8,5,990.79,-0.7,65,7.72,1.4,1018.81,99.3
2018-10-11 12:40,52.68621,-98.3147366666667,15.7,22.6,12,990.66,-0.7,65,7.76,2.3,1018.67,99.3
2018-10-11 12:50,52.68606,-98.3144866666667,14.7,23.5,3,990.79,-0.6,68,7.81,0.1,1018.80,99.3
2018-10-11 13:00,52.6711266666667,-98.3180183333333,9.0,13.2,343,991.08,1.8,65,7.78,5.4,1018.97,190.9
2018-10-11 13:10,52.6630883333333,-98.320665,11.3,15.2,330,990.97,2.2,62,7.67,2.9,1018.84,190.9
2018-10-11 13:20,52.6551666666667,-98.321205,9.4,15.7,349,990.95,1.9,63,7.60,2.9,1018.83,190.9
2018-10-11 13:30,52.6476583333333,-98.3227333333333,10.3,14.7,3,990.90,0.6,65,7.53,2.7,1018.85,190.9
2018-10-11 13:40,52.637585,-98.3247983333333,10.0,16.7,342,990.84,2.0,65,7.42,3.7,1018.72,190.9
2018-10-11 13:50,52.637205,-98.3246233333333,15.5,22.1,346,990.26,0.1,71,7.31,0.1,1018.21,190.9
2018-10-11 14:00,52.6371983333333,-98.3245933333333,16.4,21.7,331,990.21,-0.7,75,7.29,0.0,1018.22,187.2
2018-10-11 14:10,52.6363616666667,-98.3250783333333,16.8,20.8,328,990.22,-0.8,76,7.28,0.3,1018.23,187.2
2018-10-11 14:20,52.62581,-98.28259,10.5,17.4,10,990.81,-0.7,78,7.27,10.0,1018.83,187.2
2018-10-11 14:30,52.6161333333333,-98.234305,13.1,18.7,22,990.75,-0.6,75,7.16,11.1,1018.76,187.2
2018-10-11 14:40,52.6066583333333,-98.1862683333333,12.2,24.6,42,990.63,-0.6,70,7.03,11.0,1018.63,187.2
2018-10-11 14:50,52.598175,-98.146755,15.7,21.9,40,990.55,-0.6,69,7.19,9.2,1018.44,187.2
2018-10-11 15:00,52.597895,-98.1453533333333,14.7,19.8,16,989.99,-0.4,70,7.28,0.3,1017.82,127.0
2018-10-11 15:10,52.5990916666667,-98.1259233333333,13.3,18.5,28,990.34,-0.7,68,7.32,4.3,1018.21,127.0
2018-10-11 15:20,52.601805,-98.0755433333333,16.9,22.0,38,990.15,-0.6,68,7.58,11.1,1018.08,127.0
2018-10-11 15:30,52.60445,-98.0250016666667,15.4,23.0,37,990.21,-0.7,65,7.71,11.1,1018.07,127.0
2018-10-11 15:40,52.6059,-97.9743316666667,17.7,23.5,42,990.00,-0.8,71,7.74,11.1,1017.96,127.0
2018-10-11 15:50,52.6047766666667,-97.9269966666667,18.2,26.1,38,990.01,-1.0,72,7.76,10.4,1018.02,127.0
2018-10-11 16:00,52.5826133333333,-97.8917683333333,10.5,17.6,67,990.60,-1.3,71,7.80,11.1,1018.65,108.7
2018-10-11 16:10,52.5606683333333,-97.856445,12.5,19.0,79,990.45,-1.5,72,7.98,11.1,1018.50,108.7
2018-10-11 16:20,52.53847,-97.8220633333333,13.0,18.2,71,990.46,-1.5,73,7.90,11.0,1018.50,108.7
2018-10-11 16:30,52.5168316666667,-97.7866533333333,14.2,21.2,62,990.42,-1.5,72,8.08,11.0,1018.46,108.7
2018-10-11 16:40,52.4947033333333,-97.7518883333333,13.6,18.7,67,990.31,-1.7,72,8.11,11.0,1018.37,108.7
2018-10-11 16:50,52.4723233333333,-97.717695,12.0,16.8,72,990.17,-1.9,73,7.93,11.0,1018.22,108.7
2018-10-11 17:00,52.450635,-97.6823316666667,11.1,15.8,58,990.04,-1.7,72,7.73,11.0,1018.09,115.3
2018-10-11 17:10,52.428635,-97.6476116666667,13.7,18.7,61,989.99,-1.8,74,7.66,11.0,1018.04,115.3
2018-10-11 17:20,52.4065683333333,-97.612745,12.9,17.7,53,989.99,-1.9,74,7.76,11.0,1018.05,115.3
2018-10-11 17:30,52.3848633333333,-97.5775266666667,12.6,20.2,61,989.94,-2.0,73,7.72,11.0,1018.01,115.3
2018-10-11 17:40,52.3626783333333,-97.5432133333333,9.6,13.3,48,989.88,-2.0,74,7.66,11.0,1017.96,115.3
2018-10-11 17:50,52.3406533333333,-97.5084883333333,12.7,18.4,48,989.92,-2.0,73,7.22,11.0,1018.01,115.3
2018-10-11 18:00,52.3276716666667,-97.4810916666667,10.4,14.9,40,989.97,-2.2,72,7.01,7.6,1018.09,123.5
2018-10-11 18:10,52.3269333333333,-97.4841316666667,10.4,15.5,17,989.63,-2.0,72,6.78,0.7,1017.72,123.5
2018-10-11 18:20,52.3060966666667,-97.5206683333333,6.9,11.0,298,989.73,-1.6,73,6.91,11.0,1017.81,123.5
2018-10-11 18:30,52.28445,-97.5563566666667,6.4,13.6,282,989.68,-1.5,74,7.34,11.1,1017.76,123.5
2018-10-11 18:40,52.2666333333333,-97.5883716666667,5.9,10.0,307,989.65,-1.4,73,7.24,9.5,1017.73,123.5
2018-10-11 18:50,52.26119,-97.597975,8.5,12.3,352,989.54,0.9,65,7.03,2.9,1017.50,123.5
2018-10-11 19:00,52.2555233333333,-97.60772,8.2,12.7,347,989.42,1.0,67,6.87,3.0,1017.37,152.0
2018-10-11 19:10,52.251675,-97.61663,10.1,14.0,352,989.34,0.4,72,6.80,2.4,1017.33,152.0
2018-10-11 19:20,52.242535,-97.6283883333333,7.6,11.8,347,989.30,0.5,71,6.84,4.2,1017.28,152.0
2018-10-11 19:30,52.24201,-97.6296683333333,12.0,15.8,12,988.98,-0.3,73,7.03,0.3,1016.99,152.0
2018-10-11 19:40,52.241985,-97.6296666666667,12.8,16.6,9,988.81,-0.7,73,7.05,0.0,1016.85,152.0
2018-10-11 19:50,52.24217,-97.62964,12.7,18.2,3,988.77,-0.7,72,7.06,0.1,1016.81,152.0
2018-10-11 20:00,52.2250516666667,-97.6034966666667,8.2,16.2,37,989.10,-0.7,72,7.07,8.4,1017.14,167.9
2018-10-11 20:10,52.2027016666667,-97.5690983333333,6.8,12.6,59,989.07,-0.7,71,7.06,11.1,1017.08,167.9
2018-10-11 20:20,52.1807016666667,-97.5344566666667,7.6,12.1,51,988.99,-0.7,72,6.88,11.0,1017.00,167.9
2018-10-11 20:30,52.1586983333333,-97.4995833333333,7.6,11.2,62,988.98,-0.7,72,6.79,11.0,1016.98,167.9
2018-10-11 20:40,52.1370683333333,-97.4645416666667,8.0,12.3,59,988.89,-0.6,72,6.44,11.0,1016.77,167.9
2018-10-11 20:50,52.1275533333333,-97.4499833333333,8.8,13.3,25,988.80,-0.7,74,6.30,4.7,1016.67,167.9
2018-10-11 21:00,52.121535,-97.44268,9.8,13.7,18,988.70,-0.9,73,6.21,2.7,1016.61,173.5
2018-10-11 21:10,52.1159033333333,-97.43439,9.5,14.6,9,988.63,-0.7,72,6.15,2.7,1016.53,173.5
2018-10-11 21:20,52.1092716666667,-97.42544,9.3,13.4,11,988.59,-0.6,73,5.97,3.1,1016.53,173.5
2018-10-11 21:30,52.10433,-97.41684,9.3,12.9,10,988.46,-0.5,72,6.04,2.6,1016.41,173.5
2018-10-11 21:40,52.1043183333333,-97.41677,9.0,12.0,354,988.41,-0.3,72,6.14,0.0,1016.34,173.5
2018-10-11 21:50,52.1132116666667,-97.443935,14.9,20.4,331,988.03,-0.2,71,6.07,6.8,1015.94,173.5
2018-10-11 22:00,52.1226933333333,-97.49036,15.8,19.6,322,988.03,-0.1,73,5.65,10.8,1015.94,151.5
2018-10-11 22:10,52.1259016666667,-97.4922883333333,10.1,16.9,352,988.26,-0.2,73,5.94,1.2,1016.18,151.5
2018-10-11 22:20,52.1259166666667,-97.492265,7.6,10.9,354,988.43,-0.1,73,5.84,0.0,1016.35,151.5
2018-10-11 22:30,52.12591,-97.4921033333333,6.3,9.0,341,988.52,0.0,73,5.84,0.0,1016.43,151.5
2018-10-11 22:40,52.1260866666667,-97.4922133333333,6.4,10.1,336,988.51,0.2,73,5.86,0.1,1016.41,151.5
2018-10-11 22:50,52.1127316666667,-97.46604,3.0,13.4,355,988.58,0.7,68,5.90,7.5,1016.47,151.5
2018-10-11 23:00,52.0942883333333,-97.4262366666667,3.2,9.9,164,988.48,0.8,65,5.98,11.0,1016.35,140.2
2018-10-11 23:10,52.0767483333333,-97.3856383333333,3.6,7.9,90,988.51,0.5,64,5.43,11.0,1016.40,140.2
2018-10-11 23:20,52.0635166666667,-97.3566833333333,4.8,11.8,62,988.47,0.3,72,5.59,8.0,1016.36,140.2
2018-10-11 23:30,52.049635,-97.3289266666667,3.9,6.0,98,988.43,0.3,73,5.73,7.9,1016.31,140.2
